DW6169 Weather Reports


Display with metric or nautical units.
time (UTC)temp
F
wind
direction
speed
MPH
gust
MPH
rain 1hr
in
rain 24hr
in
rain mn
in
humidity
%
barometer
mb
20260506171100 85 86 3.0 10.0 0.00 0.00 0.00 69 1018.1
20260506170600 85 107 3.0 10.0 0.00 0.00 0.00 69 1018.1
20260506170103 85 92 4.0 9.0 0.00 0.00 0.00 69 1018.1
20260506165600 85 122 2.0 9.0 0.00 0.00 0.00 69 1018.2
20260506165100 86 76 1.0 9.0 0.00 0.00 0.00 68 1018.2
20260506164607 85 82 3.0 9.0 0.00 0.00 0.00 68 1018.3
20260506164100 86 65 3.0 6.0 0.00 0.00 0.00 68 1018.2
20260506163600 86 186 0.0 9.0 0.00 0.00 0.00 69 1018.2
20260506163107 85 136 3.0 9.0 0.00 0.00 0.00 69 1018.2
20260506162600 86 57 1.0 8.0 0.00 0.00 0.00 69 1018.3
20260506162059 85 82 2.0 8.0 0.00 0.00 0.00 69 1018.2
20260506161642 86 94 2.0 7.0 0.00 0.00 0.00 68 1018.3
20260506161059 86 132 1.0 8.0 0.00 0.00 0.00 69 1018.3
20260506160559 85 98 3.0 8.0 0.00 0.00 0.00 70 1018.3
20260506160111 85 100 0.0 9.0 0.00 0.00 0.00 71 1018.3
20260506155559 84 51 3.0 10.0 0.00 0.00 0.00 70 1018.3
20260506155101 85 97 2.0 10.0 0.00 0.00 0.00 69 1018.4
20260506154604 86 23 2.0 10.0 0.00 0.00 0.00 70 1018.4
20260506154101 86 112 2.0 9.0 0.00 0.00 0.00 69 1018.3
20260506153558 86 128 3.0 6.0 0.00 0.00 0.00 68 1018.3
20260506153103 86 117 1.0 6.0 0.00 0.00 0.00 69 1018.3
20260506152600 86 47 0.0 6.0 0.00 0.00 0.00 69 1018.3
20260506152100 86 88 3.0 6.0 0.00 0.00 0.00 70 1018.3
20260506151603 86 94 1.0 6.0 0.00 0.00 0.00 71 1018.2
20260506151059 86 144 0.0 6.0 0.00 0.00 0.00 71 1018.2
20260506150559 85 0 1.0 6.0 0.00 0.00 0.00 72 1018.2
20260506150058 84 106 1.0 6.0 0.00 0.00 0.00 72 1018.1
20260506145601 84 146 1.0 9.0 0.00 0.00 0.00 73 1018.1
20260506145059 83 113 1.0 9.0 0.00 0.00 0.00 73 1018.0
20260506144558 83 105 3.0 9.0 0.00 0.00 0.00 72 1017.9
20260506144059 83 92 3.0 8.0 0.00 0.00 0.00 72 1017.9
20260506143559 84 98 0.0 6.0 0.00 0.00 0.00 73 1017.9
20260506143059 83 0 1.0 6.0 0.00 0.00 0.00 73 1017.9
20260506142600 83 116 0.0 7.0 0.00 0.00 0.00 74 1017.8
20260506142103 82 77 4.0 7.0 0.00 0.00 0.00 72 1017.8
20260506141600 83 105 1.0 7.0 0.00 0.00 0.00 72 1017.8
20260506141100 83 74 2.0 7.0 0.00 0.00 0.00 73 1017.9
20260506140600 83 0 2.0 7.0 0.00 0.00 0.00 73 1017.9
20260506140100 83 115 0.0 8.0 0.00 0.00 0.00 74 1017.8
20260506135558 82 0 3.0 8.0 0.00 0.00 0.00 73 1017.8
20260506135059 82 0 1.0 8.0 0.00 0.00 0.00 74 1017.7
20260506134600 82 78 1.0 8.0 0.00 0.00 0.00 74 1017.7
20260506134059 82 0 2.0 8.0 0.00 0.00 0.00 74 1017.6
20260506133559 82 120 3.0 8.0 0.00 0.00 0.00 74 1017.6
20260506133100 82 0 0.0 8.0 0.00 0.00 0.00 75 1017.6
20260506132559 82 0 1.0 8.0 0.00 0.00 0.00 76 1017.5
20260506132101 81 0 0.0 5.0 0.00 0.00 0.00 76 1017.4
20260506131602 81 0 1.0 5.0 0.00 0.00 0.00 77 1017.5
20260506131057 81 146 0.0 4.0 0.00 0.00 0.00 78 1017.5
20260506130559 80 0 1.0 4.0 0.00 0.00 0.00 79 1017.4
20260506130140 80 80 0.0 6.0 0.00 0.00 0.00 80 1017.4
20260506125558 79 114 2.0 6.0 0.00 0.00 0.00 81 1017.4
20260506125058 79 122 0.0 6.0 0.00 0.00 0.00 82 1017.3
20260506124602 78 0 0.0 0.0 0.00 0.00 0.00 82 1017.4
20260506124102 78 0 0.0 0.0 0.00 0.00 0.00 82 1017.5
20260506123559 78 0 0.0 0.0 0.00 0.00 0.00 83 1017.4
20260506123100 77 0 0.0 0.0 0.00 0.00 0.00 83 1017.5
20260506122601 77 0 0.0 0.0 0.00 0.00 0.00 83 1017.4
20260506122059 77 0 0.0 0.0 0.00 0.00 0.00 84 1017.5
20260506121559 77 0 0.0 6.0 0.00 0.00 0.00 84 1017.4
20260506121101 76 0 0.0 6.0 0.00 0.00 0.00 84 1017.3
20260506120559 76 96 0.0 4.0 0.00 0.00 0.00 85 1017.3
20260506120108 76 76 0.0 4.0 0.00 0.00 0.00 86 1017.2
20260506115559 76 80 0.0 6.0 0.00 0.00 0.00 86 1017.0
20260506115100 75 0 0.0 6.0 0.00 0.00 0.00 86 1017.1
20260506114601 75 79 0.0 2.0 0.00 0.00 0.00 86 1017.0
20260506114059 75 0 0.0 2.0 0.00 0.00 0.00 86 1016.9
20260506113559 75 0 0.0 2.0 0.00 0.00 0.00 86 1016.8
20260506113059 75 0 0.0 0.0 0.00 0.00 0.00 86 1016.9
20260506112558 74 0 0.0 0.0 0.00 0.00 0.00 86 1016.8
20260506112059 74 0 0.0 0.0 0.00 0.00 0.00 85 1016.7
20260506111600 74 0 0.0 0.0 0.00 0.00 0.00 85 1016.8
20260506111101 73 0 0.0 0.0 0.00 0.00 0.00 85 1016.7
20260506110559 73 0 0.0 0.0 0.00 0.00 0.00 84 1016.6
20260506110106 73 0 0.0 0.0 0.00 0.00 0.00 84 1016.7
20260506105559 73 0 0.0 0.0 0.00 0.00 0.00 84 1016.5
20260506105101 73 0 0.0 0.0 0.00 0.00 0.00 83 1016.5
20260506104600 73 0 0.0 0.0 0.00 0.00 0.00 83 1016.5
20260506104059 73 0 0.0 0.0 0.00 0.00 0.00 83 1016.5
20260506103559 73 0 0.0 0.0 0.00 0.00 0.00 83 1016.4
20260506103100 74 0 0.0 0.0 0.00 0.00 0.00 83 1016.2
20260506102603 74 0 0.0 0.0 0.00 0.00 0.00 83 1016.3
20260506102101 74 0 0.0 0.0 0.00 0.00 0.00 83 1016.2
20260506101617 74 0 0.0 0.0 0.00 0.00 0.00 83 1016.0
20260506101056 74 0 0.0 0.0 0.00 0.00 0.00 83 1016.0
20260506100557 74 0 0.0 0.0 0.00 0.00 0.00 83 1016.0
20260506100120 74 0 0.0 0.0 0.00 0.00 0.00 83 1016.0
20260506095603 74 0 0.0 0.0 0.00 0.00 0.00 83 1016.1
20260506095103 74 0 0.0 0.0 0.00 0.00 0.00 83 1016.1
20260506094559 75 0 0.0 0.0 0.00 0.00 0.00 83 1016.1
20260506094101 75 0 0.0 0.0 0.00 0.00 0.00 83 1016.0
20260506093557 75 0 0.0 0.0 0.00 0.00 0.00 83 1015.9
20260506093103 75 0 0.0 0.0 0.00 0.00 0.00 82 1016.0
20260506092601 75 0 0.0 0.0 0.00 0.00 0.00 82 1015.9
20260506092057 75 0 0.0 0.0 0.00 0.00 0.00 82 1015.8
20260506091601 75 0 0.0 0.0 0.00 0.00 0.00 82 1015.8
20260506091057 75 0 0.0 0.0 0.00 0.00 0.00 82 1015.8
20260506090600 75 0 0.0 0.0 0.00 0.00 0.00 82 1015.9
20260506090059 75 0 0.0 0.0 0.00 0.00 0.00 82 1015.9
20260506085600 76 0 0.0 0.0 0.00 0.00 0.00 81 1015.8
20260506085100 76 0 0.0 0.0 0.00 0.00 0.00 81 1015.8
20260506084623 76 0 0.0 0.0 0.00 0.00 0.00 82 1015.8
20260506084101 76 0 0.0 0.0 0.00 0.00 0.00 82 1015.8
20260506083625 76 0 0.0 0.0 0.00 0.00 0.00 82 1015.8
20260506083100 76 0 0.0 0.0 0.00 0.00 0.00 82 1015.8
20260506082557 76 0 0.0 0.0 0.00 0.00 0.00 82 1015.9
20260506082057 76 0 0.0 1.0 0.00 0.00 0.00 81 1015.8
20260506081602 76 0 0.0 3.0 0.00 0.00 0.00 81 1015.8
20260506081100 76 0 0.0 3.0 0.00 0.00 0.00 81 1015.9
20260506080557 76 0 0.0 3.0 0.00 0.00 0.00 81 1015.8
20260506073058 76 0 0.0 2.0 0.00 0.00 0.00 81 1015.6
20260506072601 77 0 0.0 4.0 0.00 0.00 0.00 80 1015.7
20260506072101 76 0 0.0 4.0 0.00 0.00 0.00 80 1015.8
20260506071601 76 0 0.0 0.0 0.00 0.00 0.00 80 1015.8
20260506071058 77 0 0.0 0.0 0.00 0.00 0.00 80 1015.8
20260506070559 77 0 0.0 4.0 0.00 0.00 0.00 80 1015.7
20260506070103 77 0 1.0 4.0 0.00 0.00 0.00 80 1015.9
20260506062058 77 105 0.0 3.0 0.00 0.00 0.00 79 1015.9
20260506061600 77 0 0.0 7.0 0.00 0.00 0.00 79 1016.1
20260506061057 77 0 0.0 7.0 0.00 0.00 0.00 79 1016.0
20260506060559 77 101 1.0 7.0 0.00 0.00 0.00 79 1016.0
20260506051058 77 91 1.0 4.0 0.00 0.00 0.00 80 1016.5
20260506050558 77 106 2.0 4.0 0.00 0.00 0.00 80 1016.6
20260506050103 77 136 1.0 4.0 0.00 0.00 0.00 80 1016.6
20260506045057 77 112 1.0 7.0 0.00 0.00 0.00 80 1016.6
20260506044714 77 67 1.0 7.0 0.00 0.00 0.00 80 1016.6
20260506044102 77 106 1.0 6.0 0.00 0.00 0.00 80 1016.7
20260506043600 77 110 1.0 4.0 0.00 0.00 0.00 80 1016.8
20260506043109 77 47 2.0 4.0 0.00 0.00 0.00 80 1016.8
20260506042601 77 105 0.0 6.0 0.00 0.00 0.00 81 1016.7
20260506042101 77 98 2.0 6.0 0.00 0.00 0.00 80 1016.7
20260506041605 77 120 1.0 6.0 0.00 0.00 0.00 81 1016.8
20260506041058 77 350 1.0 6.0 0.00 0.00 0.00 81 1016.8
20260506040602 77 92 2.0 8.0 0.00 0.00 0.00 80 1016.8
20260506040110 77 133 1.0 8.0 0.00 0.00 0.00 80 1016.8
20260506035600 77 123 3.0 8.0 0.00 0.00 0.00 80 1016.8
20260506035100 77 107 1.0 6.0 0.00 0.00 0.00 80 1016.7
20260506034626 77 120 2.0 7.0 0.00 0.00 0.00 80 1016.9
20260506034056 77 80 2.0 7.0 0.00 0.00 0.00 80 1016.8
20260506033556 77 115 1.0 6.0 0.00 0.00 0.00 80 1016.9
20260506033104 77 129 0.0 3.0 0.00 0.00 0.00 80 1016.9
20260506032557 77 109 1.0 4.0 0.00 0.00 0.00 80 1016.8
20260506032057 77 119 1.0 6.0 0.00 0.00 0.00 80 1016.8
20260506031606 77 62 2.0 6.0 0.00 0.00 0.00 80 1016.8
20260506031058 77 94 1.0 8.0 0.00 0.00 0.00 79 1016.8
20260506030600 77 95 2.0 8.0 0.00 0.00 0.00 79 1016.7
20260506030100 77 92 2.0 8.0 0.00 0.00 0.00 79 1016.7
20260506025601 77 94 2.0 6.0 0.00 0.00 0.00 79 1016.6
20260506025101 77 121 2.0 6.0 0.00 0.00 0.00 79 1016.4
20260506024600 77 0 1.0 7.0 0.00 0.00 0.00 79 1016.4
20260506024100 77 113 2.0 7.0 0.00 0.00 0.00 79 1016.4
20260506023559 77 107 1.0 7.0 0.00 0.00 0.00 79 1016.3
20260506023112 77 84 2.0 9.0 0.00 0.00 0.00 79 1016.3
20260506022557 77 94 3.0 9.0 0.00 0.00 0.00 79 1016.2
20260506022057 77 119 2.0 7.0 0.00 0.00 0.00 79 1016.1
20260506021559 77 0 2.0 7.0 0.00 0.00 0.00 79 1016.0
20260506021057 77 0 2.0 9.0 0.00 0.00 0.00 79 1016.1
20260506020557 77 94 2.0 9.0 0.00 0.00 0.00 79 1016.0
20260506020059 77 123 3.0 9.0 0.00 0.00 0.00 79 1015.9
20260506015601 77 0 4.0 8.0 0.00 0.00 0.00 79 1015.9
20260506015101 77 38 3.0 7.0 0.00 0.00 0.00 79 1016.0
20260506014601 77 91 1.0 7.0 0.00 0.00 0.00 79 1015.9
20260506014100 77 107 3.0 7.0 0.00 0.00 0.00 79 1015.8
20260506013600 77 119 1.0 11.0 0.00 0.00 0.00 79 1015.8
20260506013059 77 91 2.0 11.0 0.00 0.00 0.00 79 1015.8
20260506012600 77 130 2.0 9.0 0.00 0.00 0.00 79 1015.8
20260506012100 77 119 3.0 9.0 0.00 0.00 0.00 79 1015.7
20260506011626 77 68 3.0 9.0 0.00 0.00 0.00 79 1015.7
20260506011059 77 105 2.0 9.0 0.00 0.00 0.00 79 1015.8
20260506010558 78 107 2.0 9.0 0.00 0.00 0.00 79 1015.8
20260506010104 78 80 1.0 10.0 0.00 0.00 0.00 79 1015.9
20260506005558 77 59 3.0 10.0 0.00 0.00 0.00 79 1015.8
20260506005057 77 90 3.0 9.0 0.00 0.00 0.00 79 1015.8
20260506004626 78 112 2.0 8.0 0.00 0.00 0.00 79 1015.9
20260506004058 78 98 2.0 9.0 0.00 0.00 0.00 79 1016.0
20260506003600 78 58 4.0 10.0 0.00 0.00 0.00 79 1015.9
20260506003111 78 113 5.0 15.0 0.00 0.00 0.00 79 1015.9
20260506002558 78 53 4.0 15.0 0.00 0.00 0.00 80 1015.8
20260506002058 78 42 4.0 11.0 0.00 0.00 0.00 80 1015.8
20260506001601 78 42 4.0 13.0 0.00 0.00 0.00 80 1015.7
20260506001101 78 71 4.0 13.0 0.00 0.00 0.00 80 1015.7
20260506000600 78 58 4.0 13.0 0.00 0.00 0.00 79 1015.5
20260506000059 78 76 3.0 11.0 0.00 0.00 0.00 79 1015.5
20260505235557 79 24 3.0 13.0 0.00 0.01 0.00 78 1015.5
20260505235100 79 88 3.0 13.0 0.00 0.01 0.00 78 1015.4
20260505234637 79 88 4.0 11.0 0.00 0.01 0.00 77 1015.2
20260505234103 79 90 4.0 11.0 0.00 0.01 0.00 77 1015.2
20260505233559 79 119 3.0 9.0 0.00 0.01 0.00 77 1015.2
20260505233112 79 63 2.0 9.0 0.00 0.01 0.00 77 1015.2
20260505232558 79 113 4.0 8.0 0.00 0.01 0.00 77 1015.1
20260505232100 79 56 3.0 10.0 0.00 0.01 0.00 77 1014.8
20260505231600 79 64 2.0 10.0 0.00 0.01 0.00 77 1014.6
20260505231100 79 97 4.0 9.0 0.00 0.01 0.00 76 1014.7
20260505230557 79 116 3.0 9.0 0.00 0.01 0.00 76 1014.9
20260505230105 80 69 2.0 10.0 0.00 0.01 0.00 76 1014.8
20260505225601 80 146 4.0 10.0 0.00 0.01 0.00 76 1014.7
20260505225102 80 34 4.0 10.0 0.00 0.01 0.00 77 1014.6
20260505224558 79 69 4.0 10.0 0.00 0.01 0.00 76 1014.6
20260505224100 80 123 4.0 12.0 0.00 0.01 0.00 76 1014.7
20260505223557 80 74 3.0 14.0 0.00 0.01 0.00 76 1014.6
20260505223059 80 38 4.0 14.0 0.00 0.01 0.00 76 1014.6
20260505222559 80 75 5.0 14.0 0.00 0.01 0.00 77 1014.7
20260505222100 80 88 4.0 12.0 0.00 0.01 0.00 77 1014.6
20260505221604 80 134 5.0 11.0 0.00 0.01 0.00 77 1014.6
20260505221058 80 54 5.0 13.0 0.00 0.01 0.00 77 1014.7
20260505220558 80 108 5.0 13.0 0.00 0.01 0.00 77 1014.6
20260505220106 80 109 3.0 9.0 0.00 0.01 0.00 77 1014.6
20260505215558 81 10 3.0 11.0 0.00 0.01 0.00 77 1014.5
20260505215058 81 62 4.0 11.0 0.00 0.01 0.00 76 1014.4
20260505214605 81 93 4.0 11.0 0.00 0.01 0.00 77 1014.2
20260505214058 80 74 4.0 11.0 0.00 0.01 0.00 77 1014.2
20260505213557 80 67 5.0 12.0 0.00 0.01 0.00 76 1014.1
20260505213105 81 108 5.0 13.0 0.00 0.01 0.00 76 1014.2
20260505212557 81 21 5.0 13.0 0.00 0.01 0.00 75 1014.1
20260505212057 81 75 6.0 13.0 0.00 0.01 0.00 75 1014.1
20260505211603 82 235 4.0 12.0 0.00 0.01 0.00 75 1014.1
20260505211102 82 15 6.0 12.0 0.00 0.01 0.00 75 1014.2
20260505210600 82 56 4.0 11.0 0.00 0.01 0.00 73 1014.1
20260505210058 82 23 4.0 11.0 0.00 0.01 0.00 73 1014.1
20260505205600 82 5 4.0 11.0 0.00 0.01 0.00 73 1014.0
20260505205100 82 15 4.0 12.0 0.00 0.01 0.00 74 1014.1
20260505204608 82 113 5.0 12.0 0.00 0.01 0.00 73 1014.1
20260505204101 83 115 4.0 12.0 0.00 0.01 0.00 72 1014.2
20260505203558 83 67 3.0 13.0 0.00 0.01 0.00 73 1014.2
20260505203059 83 141 5.0 13.0 0.00 0.01 0.00 72 1014.2
20260505202601 83 42 4.0 12.0 0.00 0.01 0.00 71 1014.3
20260505202101 83 98 3.0 10.0 0.00 0.01 0.00 71 1014.3
20260505201559 83 105 3.0 10.0 0.00 0.01 0.00 71 1014.2
20260505201118 84 104 3.0 10.0 0.00 0.01 0.00 71 1014.3
20260505200601 84 104 3.0 10.0 0.00 0.01 0.00 71 1014.4
20260505200104 83 147 4.0 10.0 0.00 0.01 0.00 71 1014.4
20260505195557 83 129 4.0 11.0 0.00 0.01 0.00 71 1014.4
20260505195100 83 42 5.0 12.0 0.00 0.01 0.00 71 1014.4
20260505194558 83 11 4.0 12.0 0.00 0.01 0.00 71 1014.5
20260505194057 83 106 4.0 12.0 0.00 0.01 0.00 71 1014.5
20260505193600 84 60 4.0 11.0 0.00 0.01 0.00 71 1014.7
20260505193101 84 90 4.0 10.0 0.00 0.01 0.00 70 1014.7
20260505192557 84 64 4.0 10.0 0.00 0.01 0.00 70 1014.7
20260505192101 85 67 3.0 9.0 0.00 0.01 0.00 70 1014.8
20260505191601 85 67 2.0 10.0 0.00 0.01 0.00 70 1014.8
20260505191100 84 132 3.0 10.0 0.00 0.01 0.00 71 1014.9
20260505190559 85 109 2.0 10.0 0.00 0.01 0.00 70 1014.9
20260505190059 85 141 1.0 10.0 0.00 0.01 0.00 72 1014.9
20260505185557 84 0 4.0 10.0 0.00 0.02 0.00 70 1015.0
20260505185059 84 88 4.0 9.0 0.00 0.02 0.00 70 1015.0
20260505184608 84 88 4.0 12.0 0.00 0.02 0.00 69 1015.0
20260505184101 84 59 4.0 12.0 0.00 0.02 0.00 70 1015.2
20260505183600 84 90 4.0 12.0 0.00 0.02 0.00 71 1015.0
20260505183100 84 132 3.0 13.0 0.00 0.02 0.00 71 1015.0
20260505182557 84 57 5.0 13.0 0.00 0.02 0.00 70 1015.1
20260505182103 84 126 4.0 12.0 0.00 0.02 0.00 70 1015.2
20260505181601 85 66 4.0 11.0 0.00 0.02 0.00 70 1015.2
20260505181103 85 119 4.0 9.0 0.00 0.02 0.00 71 1015.2
20260505180559 84 49 4.0 9.0 0.00 0.02 0.00 70 1015.3
20260505175558 84 0 3.0 11.0 0.00 0.08 0.00 71 1015.2
20260505175103 84 112 4.0 11.0 0.00 0.08 0.00 71 1015.2
20260505174613 83 90 3.0 11.0 0.00 0.08 0.00 72 1015.3
20260505174059 83 92 4.0 10.0 0.00 0.08 0.00 73 1015.3
20260505173556 83 86 3.0 9.0 0.00 0.08 0.00 74 1015.3
20260505173056 83 96 2.0 10.0 0.00 0.08 0.00 73 1015.4
20260505172601 83 51 4.0 10.0 0.00 0.08 0.00 73 1015.3
20260505172057 84 58 2.0 9.0 0.00 0.08 0.00 72 1015.5
20260505171600 84 66 4.0 9.0 0.00 0.08 0.00 71 1015.5